QPF
0.01 0.00 0.01 0.01 0.01 0.01 0.02 0.02 0.03 0.03 0.03 0.04 0.03 0.02 0.02 0.02 0.02 0.01 0.01 0.01 0.01 0.01 0.01 0.01 0.02 0.01 0.01 0.01 0.01 0.01 0.01 0.01 0.02 0.03 0.05 0.04 0.03 0.03 0.02 0.02 0.02 0.02 0.02 0.03
0.01 0.01 0.00 0.01 0.01 0.01 0.01 0.01 0.02 0.02 0.03 0.04 0.04 0.03 0.02 0.02 0.01 0.01 0.01 0.01 0.01 0.01 0.00 0.00 0.01 0.00 0.00 0.00 0.00 0.01 0.01 0.01 0.02 0.03 0.04 0.03 0.03 0.03 0.03 0.02 0.02 0.02 0.02 0.02
0.00 0.00 0.00 0.02 0.02 0.01 0.01 0.01 0.02 0.03 0.04 0.04 0.03 0.03 0.02 0.01 0.01 0.01 0.01 0.00 0.00 0.00 0.00 0.00 0.00 0.00 0.00 0.00 0.00 0.00 0.01 0.01 0.03 0.03 0.04 0.04 0.02 0.02 0.03 0.03 0.04 0.04 0.04 0.03
0.00 0.00 0.01 0.02 0.01 0.01 0.01 0.01 0.01 0.01 0.02 0.03 0.03 0.03 0.02 0.01 0.01 0.00 0.00 0.00 0.00 0.00 0.00 0.00 0.00 0.00 0.00 0.00 0.00 0.01 0.01 0.02 0.02 0.01 0.02 0.02 0.02 0.02 0.02 0.02 0.03 0.03 0.03 0.03
0.00 0.00 0.00 0.01 0.00 0.01 0.01 0.01 0.00 0.00 0.01 0.01 0.01 0.01 0.01 0.01 0.01 0.01 0.01 0.00 0.00 0.00 0.00 0.01 0.01 0.00 0.00 0.00 0.01 0.01 0.01 0.01 0.01 0.01 0.01 0.01 0.02 0.01 0.02 0.02 0.02 0.02 0.02 0.02
0.00 0.00 0.00 0.00 0.00 0.00 0.01 0.01 0.00 0.00 0.01 0.01 0.01 0.01 0.01 0.01 0.02 0.02 0.01 0.01 0.01 0.00 0.00 0.01 0.01 0.01 0.00 0.00 0.01 0.01 0.01 0.00 0.00 0.01 0.02 0.02 0.03 0.02 0.02 0.03 0.03 0.03 0.03 0.03
0.00 0.00 0.00 0.00 0.00 0.00 0.01 0.01 0.00 0.00 0.00 0.01 0.01 0.02 0.02 0.01 0.01 0.02 0.02 0.01 0.01 0.01 0.01 0.01 0.01 0.01 0.01 0.01 0.01 0.01 0.01 0.01 0.01 0.02 0.03 0.03 0.03 0.02 0.02 0.03 0.03 0.03 0.04 0.05
0.00 0.00 0.00 0.00 0.00 0.00 0.01 0.00 0.00 0.00 0.00 0.01 0.01 0.01 0.01 0.01 0.01 0.02 0.03 0.02 0.02 0.02 0.02 0.01 0.01 0.01 0.01 0.01 0.02 0.02 0.01 0.02 0.03 0.03 0.04 0.05 0.04 0.03 0.03 0.03 0.04 0.04 0.04 0.05
0.00 0.00 0.00 0.00 0.00 0.00 0.00 0.00 0.00 0.00 0.00 0.00 0.01 0.01 0.01 0.01 0.01 0.01 0.03 0.03 0.02 0.02 0.02 0.02 0.02 0.02 0.02 0.02 0.02 0.02 0.02 0.02 0.03 0.04 0.05 0.06 0.03 0.03 0.03 0.03 0.03 0.04 0.04 0.04
0.00 0.00 0.00 0.00 0.00 0.00 0.00 0.00 0.00 0.00 0.00 0.00 0.00 0.00 0.01 0.01 0.01 0.01 0.02 0.03 0.03 0.02 0.02 0.02 0.02 0.02 0.02 0.02 0.03 0.02 0.02 0.02 0.03 0.04 0.04 0.05 0.04 0.03 0.03 0.03 0.03 0.04 0.04 0.04
0.00 0.00 0.00 0.00 0.00 0.00 0.00 0.00 0.00 0.00 0.00 0.00 0.00 0.00 0.00 0.00 0.01 0.01 0.01 0.02 0.04 0.03 0.03 0.02 0.02 0.03 0.03 0.03 0.04 0.04 0.03 0.03 0.03 0.03 0.04 0.03 0.03 0.03 0.04 0.04 0.05 0.05 0.05 0.05
0.00 0.00 0.00 0.00 0.00 0.00 0.00 0.00 0.00 0.00 0.00 0.00 0.00 0.00 0.00 0.00 0.00 0.00 0.01 0.01 0.02 0.04 0.04 0.03 0.03 0.03 0.03 0.03 0.03 0.04 0.04 0.04 0.03 0.03 0.03 0.03 0.03 0.02 0.04 0.04 0.05 0.07 0.06 0.06
0.00 0.00 0.00 0.00 0.00 0.00 0.00 0.00 0.00 0.00 0.00 0.00 0.00 0.00 0.00 0.00 0.00 0.00 0.01 0.01 0.01 0.02 0.03 0.04 0.03 0.03 0.03 0.03 0.03 0.03 0.03 0.03 0.03 0.03 0.03 0.03 0.03 0.03 0.03 0.04 0.04 0.04 0.05 0.05
0.00 0.00 0.00 0.00 0.00 0.00 0.00 0.00 0.00 0.00 0.00 0.00 0.00 0.00 0.00 0.00 0.00 0.00 0.01 0.01 0.02 0.02 0.02 0.03 0.04 0.04 0.03 0.04 0.04 0.03 0.03 0.03 0.03 0.03 0.03 0.03 0.04 0.04 0.04 0.04 0.04 0.03 0.03 0.04
0.00 0.00 0.00 0.00 0.00 0.00 0.00 0.00 0.00 0.00 0.00 0.00 0.00 0.00 0.00 0.00 0.01 0.01 0.01 0.01 0.02 0.02 0.02 0.02 0.03 0.04 0.04 0.04 0.05 0.05 0.04 0.03 0.04 0.04 0.04 0.03 0.03 0.04 0.04 0.04 0.03 0.03 0.02 0.03
0.00 0.00 0.00 0.00 0.00 0.00 0.00 0.00 0.00 0.00 0.00 0.00 0.00 0.00 0.01 0.01 0.01 0.01 0.01 0.01 0.02 0.02 0.02 0.02 0.03 0.03 0.03 0.03 0.04 0.05 0.04 0.04 0.04 0.04 0.04 0.03 0.03 0.03 0.03 0.03 0.03 0.02 0.02 0.02
0.00 0.00 0.00 0.00 0.00 0.00 0.00 0.00 0.00 0.00 0.00 0.00 0.00 0.00 0.01 0.01 0.01 0.01 0.01 0.01 0.01 0.02 0.03 0.03 0.03 0.03 0.03 0.03 0.03 0.03 0.03 0.03 0.03 0.03 0.03 0.03 0.03 0.03 0.03 0.02 0.02 0.02 0.02 0.02
0.00 0.00 0.00 0.00 0.00 0.00 0.00 0.00 0.00 0.00 0.00 0.00 0.00 0.00 0.00 0.00 0.01 0.00 0.01 0.01 0.01 0.02 0.03 0.03 0.04 0.03 0.03 0.02 0.02 0.01 0.01 0.02 0.03 0.03 0.03 0.03 0.03 0.03 0.03 0.03 0.02 0.02 0.02 0.02
0.00 0.00 0.00 0.00 0.00 0.00 0.00 0.00 0.00 0.00 0.00 0.00 0.00 0.00 0.00 0.00 0.00 0.00 0.01 0.01 0.02 0.02 0.03 0.03 0.02 0.02 0.02 0.01 0.01 0.01 0.01 0.02 0.02 0.02 0.03 0.03 0.03 0.03 0.02 0.02 0.02 0.02 0.02 0.01
0.00 0.00 0.00 0.00 0.00 0.00 0.00 0.00 0.00 0.00 0.00 0.00 0.00 0.00 0.00 0.01 0.01 0.01 0.01 0.01 0.02 0.02 0.02 0.02 0.02 0.01 0.01 0.01 0.01 0.01 0.02 0.02 0.02 0.02 0.02 0.02 0.03 0.03 0.02 0.02 0.02 0.02 0.02 0.01
0.00 0.00 0.00 0.00 0.00 0.00 0.00 0.00 0.00 0.00 0.00 0.00 0.00 0.00 0.00 0.01 0.01 0.01 0.01 0.02 0.02 0.02 0.02 0.02 0.02 0.02 0.01 0.01 0.01 0.01 0.02 0.02 0.02 0.02 0.02 0.02 0.02 0.02 0.02 0.02 0.02 0.02 0.02 0.02
0.00 0.00 0.00 0.00 0.00 0.00 0.00 0.00 0.00 0.00 0.00 0.00 0.00 0.00 0.00 0.01 0.01 0.01 0.01 0.02 0.02 0.02 0.02 0.02 0.02 0.02 0.02 0.01 0.01 0.01 0.01 0.01 0.01 0.02 0.02 0.02 0.02 0.02 0.01 0.01 0.01 0.01 0.01 0.01
0.00 0.00 0.00 0.00 0.00 0.00 0.00 0.00 0.00 0.00 0.00 0.00 0.00 0.00 0.00 0.01 0.01 0.01 0.01 0.01 0.02 0.02 0.02 0.02 0.02 0.02 0.02 0.01 0.01 0.01 0.01 0.01 0.01 0.01 0.01 0.01 0.01 0.01 0.01 0.01 0.01 0.01 0.01 0.01
0.00 0.00 0.00 0.00 0.00 0.00 0.00 0.00 0.00 0.00 0.00 0.00 0.00 0.00 0.01 0.01 0.01 0.01 0.01 0.01 0.02 0.02 0.02 0.02 0.02 0.02 0.02 0.01 0.01 0.01 0.01 0.01 0.01 0.01 0.01 0.01 0.01 0.01 0.01 0.01 0.01 0.01 0.01 0.01
0.00 0.00 0.00 0.00 0.00 0.00 0.00 0.00 0.00 0.00 0.00 0.00 0.00 0.00 0.00 0.01 0.01 0.01 0.01 0.01 0.01 0.01 0.01 0.01 0.02 0.02 0.01 0.01 0.02 0.02 0.02 0.02 0.01 0.01 0.01 0.01 0.01 0.01 0.01 0.01 0.01 0.01 0.01 0.01
0.00 0.00 0.00 0.00 0.00 0.00 0.00 0.00 0.00 0.00 0.00 0.00 0.00 0.00 0.00 0.00 0.01 0.01 0.01 0.01 0.01 0.01 0.01 0.01 0.01 0.01 0.01 0.01 0.02 0.02 0.01 0.01 0.01 0.01 0.01 0.01 0.01 0.01 0.01 0.01 0.01 0.01 0.01 0.01
0.00 0.00 0.00 0.00 0.00 0.00 0.00 0.00 0.00 0.00 0.00 0.00 0.00 0.00 0.00 0.00 0.00 0.01 0.01 0.01 0.01 0.01 0.01 0.01 0.01 0.01 0.01 0.01 0.01 0.01 0.01 0.01 0.01 0.01 0.01 0.01 0.01 0.01 0.01 0.01 0.01 0.01 0.01 0.01
MSLP
1013.24 1012.99 1012.84 1012.80 1012.84 1012.93 1013.03 1013.11 1013.14 1013.10 1012.97 1012.78 1012.53 1012.26 1012.00 1011.76 1011.57 1011.44 1011.36 1011.32 1011.31 1011.31 1011.31 1011.29 1011.25 1011.19 1011.14 1011.09 1011.07 1011.09 1011.17 1011.32 1011.53 1011.82 1012.18 1012.60 1013.08 1013.61 1014.17 1014.77 1015.37 1015.98 1016.56 1017.11
1013.60 1013.47 1013.47 1013.58 1013.77 1014.00 1014.22 1014.38 1014.45 1014.41 1014.27 1014.03 1013.72 1013.38 1013.05 1012.74 1012.49 1012.31 1012.19 1012.11 1012.07 1012.04 1012.01 1011.96 1011.89 1011.82 1011.74 1011.69 1011.67 1011.70 1011.80 1011.96 1012.20 1012.50 1012.86 1013.28 1013.73 1014.22 1014.75 1015.29 1015.84 1016.40 1016.94 1017.45
1013.87 1013.85 1013.98 1014.23 1014.57 1014.93 1015.26 1015.51 1015.64 1015.64 1015.50 1015.24 1014.89 1014.50 1014.10 1013.73 1013.41 1013.16 1012.98 1012.85 1012.75 1012.67 1012.58 1012.48 1012.37 1012.26 1012.17 1012.10 1012.09 1012.13 1012.25 1012.44 1012.70 1013.02 1013.40 1013.81 1014.25 1014.72 1015.21 1015.71 1016.22 1016.73 1017.23 1017.70
1014.03 1014.12 1014.37 1014.75 1015.21 1015.69 1016.13 1016.47 1016.67 1016.71 1016.59 1016.33 1015.96 1015.54 1015.09 1014.67 1014.29 1013.98 1013.72 1013.51 1013.34 1013.18 1013.02 1012.86 1012.69 1012.54 1012.41 1012.33 1012.32 1012.37 1012.51 1012.72 1013.00 1013.35 1013.73 1014.15 1014.59 1015.04 1015.51 1015.98 1016.46 1016.93 1017.40 1017.84
1014.15 1014.34 1014.69 1015.18 1015.74 1016.32 1016.84 1017.26 1017.52 1017.60 1017.52 1017.28 1016.91 1016.47 1016.00 1015.54 1015.11 1014.73 1014.40 1014.11 1013.85 1013.61 1013.37 1013.13 1012.90 1012.69 1012.53 1012.42 1012.39 1012.45 1012.59 1012.82 1013.12 1013.47 1013.87 1014.30 1014.74 1015.19 1015.64 1016.10 1016.55 1017.00 1017.44 1017.86
1014.31 1014.58 1015.01 1015.57 1016.21 1016.85 1017.43 1017.90 1018.20 1018.33 1018.28 1018.06 1017.72 1017.28 1016.80 1016.32 1015.85 1015.42 1015.03 1014.67 1014.33 1014.00 1013.68 1013.36 1013.06 1012.79 1012.58 1012.43 1012.37 1012.41 1012.55 1012.78 1013.08 1013.44 1013.84 1014.27 1014.72 1015.16 1015.61 1016.06 1016.51 1016.95 1017.37 1017.78
1014.58 1014.91 1015.40 1016.01 1016.68 1017.34 1017.95 1018.44 1018.76 1018.92 1018.89 1018.70 1018.38 1017.96 1017.50 1017.01 1016.52 1016.06 1015.62 1015.19 1014.78 1014.38 1013.98 1013.59 1013.22 1012.89 1012.61 1012.43 1012.33 1012.34 1012.46 1012.66 1012.95 1013.30 1013.70 1014.12 1014.56 1015.01 1015.45 1015.90 1016.34 1016.77 1017.19 1017.59
1015.02 1015.40 1015.91 1016.52 1017.18 1017.84 1018.43 1018.90 1019.23 1019.39 1019.38 1019.21 1018.92 1018.53 1018.08 1017.60 1017.12 1016.64 1016.16 1015.69 1015.22 1014.76 1014.29 1013.83 1013.40 1013.01 1012.69 1012.45 1012.31 1012.28 1012.36 1012.53 1012.79 1013.12 1013.49 1013.90 1014.32 1014.76 1015.20 1015.64 1016.08 1016.50 1016.92 1017.30
1015.64 1016.03 1016.53 1017.12 1017.74 1018.35 1018.89 1019.32 1019.62 1019.77 1019.76 1019.61 1019.34 1018.98 1018.56 1018.11 1017.63 1017.14 1016.65 1016.15 1015.64 1015.12 1014.60 1014.09 1013.61 1013.17 1012.80 1012.52 1012.33 1012.26 1012.29 1012.42 1012.64 1012.93 1013.27 1013.64 1014.04 1014.46 1014.88 1015.31 1015.74 1016.16 1016.56 1016.95
1016.40 1016.78 1017.25 1017.79 1018.34 1018.88 1019.35 1019.72 1019.97 1020.08 1020.06 1019.92 1019.67 1019.34 1018.95 1018.51 1018.05 1017.56 1017.05 1016.53 1015.99 1015.43 1014.88 1014.33 1013.81 1013.34 1012.93 1012.61 1012.40 1012.28 1012.27 1012.36 1012.53 1012.77 1013.06 1013.40 1013.76 1014.14 1014.54 1014.94 1015.35 1015.76 1016.16 1016.53
1017.20 1017.56 1018.00 1018.47 1018.95 1019.39 1019.78 1020.08 1020.27 1020.35 1020.31 1020.17 1019.93 1019.61 1019.24 1018.82 1018.36 1017.87 1017.35 1016.80 1016.24 1015.65 1015.07 1014.50 1013.96 1013.47 1013.05 1012.71 1012.47 1012.33 1012.29 1012.34 1012.47 1012.66 1012.90 1013.19 1013.51 1013.85 1014.21 1014.58 1014.96 1015.35 1015.74 1016.10
1017.97 1018.31 1018.70 1019.11 1019.51 1019.88 1020.19 1020.41 1020.55 1020.58 1020.52 1020.37 1020.13 1019.83 1019.46 1019.04 1018.58 1018.07 1017.53 1016.96 1016.36 1015.76 1015.16 1014.57 1014.02 1013.54 1013.12 1012.79 1012.55 1012.41 1012.35 1012.38 1012.47 1012.62 1012.82 1013.05 1013.32 1013.61 1013.93 1014.27 1014.62 1014.98 1015.34 1015.69
1018.61 1018.95 1019.31 1019.68 1020.02 1020.32 1020.57 1020.73 1020.82 1020.81 1020.73 1020.56 1020.32 1020.01 1019.63 1019.20 1018.72 1018.19 1017.61 1017.01 1016.39 1015.76 1015.14 1014.55 1014.01 1013.54 1013.15 1012.84 1012.63 1012.50 1012.45 1012.47 1012.54 1012.66 1012.82 1013.01 1013.22 1013.47 1013.74 1014.04 1014.36 1014.69 1015.03 1015.36
1019.11 1019.46 1019.82 1020.16 1020.47 1020.73 1020.92 1021.05 1021.09 1021.06 1020.95 1020.77 1020.52 1020.19 1019.80 1019.34 1018.83 1018.26 1017.65 1017.00 1016.35 1015.69 1015.07 1014.49 1013.97 1013.53 1013.17 1012.91 1012.73 1012.64 1012.61 1012.63 1012.70 1012.80 1012.93 1013.08 1013.25 1013.46 1013.68 1013.94 1014.22 1014.52 1014.84 1015.16
1019.47 1019.86 1020.24 1020.58 1020.88 1021.11 1021.28 1021.37 1021.39 1021.34 1021.21 1021.01 1020.74 1020.40 1019.99 1019.50 1018.95 1018.34 1017.69 1017.01 1016.32 1015.65 1015.02 1014.45 1013.96 1013.55 1013.25 1013.03 1012.91 1012.85 1012.85 1012.90 1012.97 1013.06 1013.17 1013.29 1013.43 1013.59 1013.77 1013.99 1014.24 1014.52 1014.82 1015.12
1019.75 1020.19 1020.60 1020.96 1021.26 1021.49 1021.64 1021.71 1021.71 1021.64 1021.51 1021.30 1021.01 1020.65 1020.22 1019.71 1019.13 1018.49 1017.81 1017.10 1016.39 1015.71 1015.08 1014.52 1014.06 1013.70 1013.44 1013.28 1013.20 1013.18 1013.21 1013.28 1013.36 1013.44 1013.53 1013.63 1013.73 1013.86 1014.02 1014.20 1014.42 1014.68 1014.95 1015.24
1020.01 1020.51 1020.96 1021.34 1021.65 1021.87 1022.00 1022.06 1022.05 1021.96 1021.82 1021.60 1021.31 1020.95 1020.50 1019.99 1019.39 1018.74 1018.04 1017.32 1016.60 1015.93 1015.31 1014.78 1014.34 1014.02 1013.80 1013.67 1013.63 1013.65 1013.70 1013.78 1013.86 1013.93 1014.01 1014.08 1014.16 1014.26 1014.38 1014.54 1014.74 1014.97 1015.23 1015.50
1020.32 1020.87 1021.34 1021.74 1022.03 1022.23 1022.35 1022.39 1022.35 1022.26 1022.10 1021.89 1021.60 1021.25 1020.82 1020.31 1019.73 1019.09 1018.40 1017.69 1017.00 1016.33 1015.74 1015.23 1014.83 1014.53 1014.33 1014.24 1014.21 1014.24 1014.30 1014.37 1014.44 1014.50 1014.56 1014.60 1014.66 1014.73 1014.83 1014.97 1015.15 1015.36 1015.60 1015.85
1020.72 1021.29 1021.76 1022.14 1022.41 1022.57 1022.65 1022.65 1022.59 1022.48 1022.32 1022.11 1021.85 1021.52 1021.12 1020.65 1020.11 1019.51 1018.86 1018.19 1017.53 1016.91 1016.35 1015.87 1015.48 1015.20 1015.02 1014.93 1014.90 1014.92 1014.96 1015.01 1015.06 1015.10 1015.12 1015.14 1015.17 1015.23 1015.30 1015.42 1015.58 1015.77 1015.99 1016.22
1021.20 1021.75 1022.20 1022.53 1022.74 1022.84 1022.87 1022.82 1022.73 1022.60 1022.43 1022.23 1022.00 1021.71 1021.36 1020.95 1020.48 1019.94 1019.36 1018.75 1018.15 1017.57 1017.05 1016.60 1016.24 1015.96 1015.78 1015.67 1015.63 1015.62 1015.63 1015.64 1015.66 1015.66 1015.65 1015.65 1015.65 1015.68 1015.74 1015.84 1015.97 1016.14 1016.34 1016.54
1021.71 1022.22 1022.61 1022.86 1022.99 1023.02 1022.97 1022.87 1022.74 1022.58 1022.42 1022.24 1022.03 1021.80 1021.52 1021.18 1020.78 1020.33 1019.83 1019.30 1018.76 1018.24 1017.76 1017.34 1016.99 1016.72 1016.52 1016.39 1016.31 1016.26 1016.24 1016.21 1016.18 1016.14 1016.10 1016.07 1016.05 1016.06 1016.10 1016.18 1016.30 1016.44 1016.60 1016.76
1022.21 1022.65 1022.95 1023.11 1023.15 1023.09 1022.96 1022.80 1022.63 1022.46 1022.29 1022.13 1021.97 1021.79 1021.58 1021.32 1021.00 1020.63 1020.21 1019.76 1019.29 1018.82 1018.39 1018.00 1017.66 1017.39 1017.17 1017.01 1016.90 1016.81 1016.73 1016.67 1016.60 1016.53 1016.46 1016.40 1016.36 1016.35 1016.38 1016.43 1016.52 1016.63 1016.76 1016.88
1022.64 1022.99 1023.19 1023.25 1023.19 1023.05 1022.86 1022.65 1022.44 1022.26 1022.10 1021.96 1021.84 1021.71 1021.56 1021.37 1021.12 1020.83 1020.48 1020.10 1019.69 1019.27 1018.88 1018.51 1018.18 1017.90 1017.68 1017.50 1017.35 1017.23 1017.12 1017.01 1016.91 1016.82 1016.73 1016.65 1016.59 1016.56 1016.56 1016.60 1016.65 1016.73 1016.81 1016.88
1022.95 1023.21 1023.31 1023.28 1023.15 1022.94 1022.70 1022.46 1022.24 1022.05 1021.91 1021.80 1021.71 1021.62 1021.51 1021.37 1021.19 1020.94 1020.65 1020.32 1019.95 1019.57 1019.20 1018.85 1018.54 1018.26 1018.03 1017.83 1017.67 1017.52 1017.39 1017.27 1017.15 1017.04 1016.93 1016.84 1016.76 1016.71 1016.69 1016.69 1016.71 1016.73 1016.76 1016.77
1023.11 1023.28 1023.31 1023.21 1023.02 1022.78 1022.52 1022.28 1022.06 1021.89 1021.77 1021.69 1021.63 1021.57 1021.50 1021.39 1021.23 1021.02 1020.75 1020.44 1020.10 1019.75 1019.40 1019.06 1018.76 1018.48 1018.25 1018.05 1017.88 1017.73 1017.59 1017.46 1017.33 1017.21 1017.09 1016.98 1016.89 1016.81 1016.75 1016.71 1016.68 1016.65 1016.61 1016.56
1023.11 1023.22 1023.19 1023.06 1022.86 1022.61 1022.37 1022.15 1021.97 1021.83 1021.74 1021.69 1021.65 1021.61 1021.55 1021.45 1021.30 1021.09 1020.83 1020.53 1020.19 1019.84 1019.50 1019.18 1018.88 1018.62 1018.39 1018.20 1018.04 1017.89 1017.75 1017.62 1017.49 1017.36 1017.23 1017.10 1016.97 1016.86 1016.75 1016.66 1016.57 1016.47 1016.36 1016.24
1022.96 1023.03 1022.98 1022.84 1022.66 1022.46 1022.26 1022.09 1021.96 1021.88 1021.83 1021.81 1021.80 1021.76 1021.70 1021.59 1021.43 1021.20 1020.93 1020.61 1020.27 1019.92 1019.58 1019.26 1018.97 1018.72 1018.50 1018.32 1018.16 1018.03 1017.89 1017.76 1017.62 1017.47 1017.32 1017.16 1016.99 1016.83 1016.66 1016.50 1016.33 1016.16 1015.98 1015.78
Thickness
5508 5509 5510 5512 5513 5512 5514 5519 5522 5523 5521 5520 5518 5516 5516 5517 5518 5521 5522 5522 5523 5525 5527 5529 5530 5532 5533 5535 5536 5536 5537 5538 5537 5536 5537 5537 5538 5539 5539 5539 5539 5540 5540 5541
5510 5509 5511 5510 5513 5513 5514 5515 5518 5519 5518 5515 5511 5511 5511 5511 5512 5512 5513 5513 5514 5516 5517 5518 5519 5521 5522 5523 5523 5524 5525 5524 5524 5523 5523 5523 5524 5525 5525 5525 5525 5526 5527 5528
5519 5511 5514 5519 5517 5516 5515 5513 5515 5517 5516 5510 5509 5507 5505 5504 5504 5503 5503 5504 5505 5506 5506 5506 5507 5508 5510 5510 5511 5511 5512 5512 5511 5511 5510 5510 5510 5510 5511 5512 5512 5513 5514 5515
5516 5517 5516 5522 5511 5513 5513 5511 5510 5510 5509 5506 5504 5501 5500 5498 5498 5497 5496 5496 5496 5496 5496 5495 5496 5497 5498 5498 5499 5499 5500 5500 5499 5498 5498 5498 5498 5498 5499 5499 5500 5501 5502 5503
5514 5521 5524 5518 5510 5507 5510 5512 5508 5506 5504 5501 5497 5500 5500 5492 5489 5488 5487 5485 5485 5485 5484 5485 5485 5485 5486 5487 5488 5488 5488 5487 5487 5487 5487 5487 5487 5488 5487 5488 5488 5489 5489 5490
5511 5517 5524 5527 5511 5505 5508 5513 5505 5502 5499 5495 5494 5501 5500 5487 5482 5480 5478 5476 5475 5474 5474 5474 5474 5473 5474 5475 5475 5475 5475 5474 5474 5475 5476 5477 5477 5476 5476 5476 5477 5477 5477 5479
5510 5515 5527 5516 5505 5503 5511 5519 5502 5498 5494 5489 5489 5489 5484 5477 5473 5471 5469 5467 5465 5464 5463 5462 5461 5461 5461 5461 5461 5461 5461 5462 5463 5464 5464 5465 5465 5465 5464 5465 5465 5466 5467 5468
5511 5513 5522 5507 5503 5508 5513 5500 5495 5491 5487 5483 5480 5475 5472 5468 5465 5462 5460 5458 5456 5454 5452 5450 5449 5448 5448 5448 5448 5448 5449 5450 5451 5451 5452 5452 5453 5453 5453 5454 5454 5455 5456 5456
5518 5522 5510 5505 5506 5501 5496 5494 5489 5485 5479 5475 5472 5468 5464 5461 5457 5454 5451 5448 5445 5443 5441 5439 5437 5435 5435 5435 5435 5436 5438 5438 5439 5439 5440 5441 5442 5443 5443 5444 5445 5446 5446 5446
5505 5510 5503 5498 5495 5491 5489 5487 5482 5477 5472 5468 5465 5461 5456 5452 5449 5445 5441 5437 5434 5431 5430 5428 5426 5423 5422 5422 5422 5424 5425 5426 5427 5428 5429 5430 5430 5431 5432 5434 5435 5435 5436 5437
5505 5505 5497 5495 5492 5489 5483 5477 5472 5467 5463 5459 5455 5451 5447 5444 5440 5435 5430 5426 5422 5420 5418 5416 5414 5412 5410 5410 5410 5412 5413 5413 5414 5414 5416 5417 5418 5419 5421 5422 5424 5425 5426 5427
5518 5512 5506 5503 5494 5485 5478 5472 5467 5461 5455 5450 5446 5442 5438 5433 5429 5424 5419 5415 5412 5409 5407 5405 5402 5400 5399 5398 5398 5398 5400 5400 5400 5401 5402 5404 5406 5408 5408 5409 5411 5412 5414 5416
5508 5501 5497 5493 5485 5479 5474 5468 5461 5455 5449 5443 5437 5432 5427 5422 5418 5412 5408 5404 5401 5398 5396 5394 5392 5390 5388 5387 5386 5386 5387 5388 5388 5389 5390 5392 5394 5396 5397 5398 5399 5401 5403 5405
5492 5488 5485 5482 5478 5471 5465 5459 5452 5446 5440 5435 5429 5423 5417 5412 5407 5402 5398 5394 5390 5387 5385 5383 5382 5380 5379 5377 5376 5376 5377 5377 5377 5378 5379 5380 5382 5383 5385 5387 5389 5391 5392 5393
5486 5484 5483 5477 5469 5462 5455 5449 5443 5438 5432 5426 5420 5414 5408 5402 5397 5393 5388 5383 5380 5377 5375 5373 5372 5371 5369 5367 5367 5367 5367 5367 5368 5368 5368 5369 5370 5371 5373 5375 5377 5379 5380 5382
5481 5475 5470 5466 5461 5454 5447 5442 5438 5433 5426 5418 5411 5405 5399 5393 5388 5383 5378 5373 5369 5367 5365 5363 5362 5361 5359 5358 5358 5358 5358 5357 5357 5358 5358 5359 5360 5361 5362 5364 5366 5367 5369 5371
5476 5470 5465 5460 5455 5448 5442 5437 5431 5425 5417 5410 5403 5396 5390 5384 5378 5374 5369 5364 5360 5356 5354 5352 5352 5351 5349 5349 5349 5349 5349 5350 5349 5349 5349 5349 5350 5350 5352 5353 5355 5357 5358 5360
5478 5474 5467 5460 5453 5444 5437 5430 5423 5415 5408 5402 5394 5387 5381 5375 5371 5366 5361 5355 5351 5348 5346 5344 5342 5341 5340 5340 5339 5340 5340 5340 5340 5340 5340 5340 5340 5341 5341 5343 5345 5347 5349 5350
5468 5463 5456 5450 5444 5437 5430 5422 5414 5407 5400 5392 5385 5379 5374 5368 5363 5357 5351 5346 5343 5341 5339 5336 5333 5332 5332 5331 5330 5331 5331 5331 5331 5332 5332 5332 5332 5332 5333 5334 5336 5337 5339 5341
5457 5453 5447 5440 5433 5427 5420 5413 5406 5398 5391 5384 5377 5371 5366 5360 5354 5348 5343 5338 5335 5333 5330 5327 5326 5325 5325 5324 5323 5323 5323 5323 5323 5324 5324 5324 5324 5324 5325 5326 5327 5329 5331 5333
5448 5443 5437 5431 5424 5417 5410 5404 5396 5389 5382 5375 5369 5363 5358 5352 5345 5339 5335 5332 5329 5324 5321 5320 5319 5319 5318 5317 5317 5317 5316 5316 5316 5316 5316 5316 5316 5317 5317 5318 5320 5321 5323 5325
5438 5433 5427 5421 5414 5407 5400 5394 5387 5381 5374 5367 5360 5355 5348 5343 5338 5332 5328 5324 5321 5317 5315 5314 5313 5312 5311 5310 5310 5310 5309 5308 5308 5308 5308 5309 5309 5310 5310 5311 5313 5314 5315 5317
5428 5423 5417 5411 5405 5398 5390 5384 5378 5372 5365 5359 5352 5346 5341 5335 5330 5325 5322 5318 5313 5311 5309 5308 5306 5305 5305 5304 5303 5303 5302 5301 5301 5301 5301 5302 5302 5303 5304 5305 5306 5307 5308 5310
5416 5411 5406 5400 5393 5387 5382 5376 5368 5362 5356 5349 5344 5338 5332 5327 5323 5318 5313 5310 5307 5305 5304 5302 5300 5300 5299 5298 5297 5296 5296 5296 5295 5295 5296 5296 5296 5297 5298 5298 5300 5301 5302 5303
5405 5399 5393 5388 5384 5381 5374 5366 5359 5353 5347 5342 5336 5330 5324 5319 5314 5310 5305 5303 5300 5299 5298 5296 5294 5294 5292 5291 5291 5290 5290 5290 5290 5291 5291 5291 5291 5292 5292 5293 5294 5295 5296 5297
5394 5390 5386 5381 5377 5371 5364 5358 5352 5346 5340 5334 5328 5322 5316 5311 5306 5302 5299 5296 5294 5293 5291 5290 5288 5287 5286 5286 5285 5285 5284 5284 5284 5285 5285 5285 5286 5286 5287 5287 5288 5289 5290 5290
5383 5379 5374 5370 5365 5360 5354 5349 5343 5338 5331 5325 5319 5314 5308 5303 5299 5295 5292 5290 5288 5286 5285 5284 5282 5282 5281 5280 5280 5279 5279 5279 5279 5279 5279 5279 5279 5280 5281 5281 5282 5283 5283 5284